Time,TemperatureF,DewpointF,PressureIn,WindDirection,WindDirectionDegrees,WindSpeedMPH,WindSpeedGustMPH,Humidity,HourlyPrecipIn,Conditions,Clouds,dailyrainin,SolarRadiationWatts/m^2,SoftwareType,DateUTC
2013-03-11 00:00:00,57.9,54.7,30.08,East,100,0.0,0.0,89,0.00,CLR,,0.00,0.0,WeatherDisplay:10.37,2013-03-11 04:00:00,
2013-03-11 00:05:00,57.9,54.7,30.08,East,100,1.1,1.1,89,0.00,CLR,,0.00,0.0,WeatherDisplay:10.37,2013-03-11 04:05:00,
2013-03-11 00:10:00,57.7,54.2,30.08,East,100,1.1,0.0,88,0.00,CLR,,0.00,0.0,WeatherDisplay:10.37,2013-03-11 04:10:00,
2013-03-11 00:15:00,57.6,54.4,30.08,East,100,0.0,0.0,89,0.00,CLR,,0.00,0.0,WeatherDisplay:10.37,2013-03-11 04:15:00,
2013-03-11 00:20:00,57.5,54.3,30.08,East,100,1.1,0.0,89,0.00,CLR,,0.00,0.0,WeatherDisplay:10.37,2013-03-11 04:20:00,
2013-03-11 00:25:00,57.2,54.0,30.08,East,100,0.0,0.0,89,0.00,CLR,,0.00,0.0,WeatherDisplay:10.37,2013-03-11 04:25:00,
2013-03-11 00:30:00,56.8,53.6,30.08,East,100,0.0,0.0,89,0.00,CLR,,0.00,0.0,WeatherDisplay:10.37,2013-03-11 04:30:00,
2013-03-11 00:35:00,56.4,53.5,30.08,East,100,0.0,0.0,90,0.00,CLR,,0.00,0.0,WeatherDisplay:10.37,2013-03-11 04:35:00,
2013-03-11 00:40:00,56.0,52.8,30.08,East,100,0.0,0.0,89,0.00,CLR,,0.00,0.0,WeatherDisplay:10.37,2013-03-11 04:40:00,
2013-03-11 00:45:00,55.6,52.7,30.08,East,99,0.0,0.0,90,0.00,CLR,,0.00,0.0,WeatherDisplay:10.37,2013-03-11 04:45:00,
2013-03-11 00:50:00,55.2,52.6,30.08,East,100,0.0,0.0,91,0.00,CLR,,0.00,0.0,WeatherDisplay:10.37,2013-03-11 04:50:00,
2013-03-11 00:55:00,55.0,52.4,30.08,East,99,0.0,0.0,91,0.00,CLR,,0.00,0.0,WeatherDisplay:10.37,2013-03-11 04:55:00,
2013-03-11 01:00:00,54.8,52.2,30.07,East,100,0.0,0.0,91,0.00,CLR,,0.00,0.0,WeatherDisplay:10.37,2013-03-11 05:00:00,
2013-03-11 01:05:00,54.6,52.0,30.07,East,100,0.0,0.0,91,0.00,CLR,,0.00,0.0,WeatherDisplay:10.37,2013-03-11 05:05:00,
2013-03-11 01:10:00,54.6,52.3,30.07,East,100,1.1,0.0,92,0.00,CLR,,0.00,0.0,WeatherDisplay:10.37,2013-03-11 05:10:00,
2013-03-11 01:15:00,54.8,52.5,30.06,East,99,0.0,0.0,92,0.00,CLR,,0.00,0.0,WeatherDisplay:10.37,2013-03-11 05:15:00,
2013-03-11 01:20:00,54.7,52.4,30.06,East,100,0.0,0.0,92,0.00,CLR,,0.00,0.0,WeatherDisplay:10.37,2013-03-11 05:20:00,
2013-03-11 01:25:00,54.7,52.4,30.06,East,100,0.0,0.0,92,0.00,CLR,,0.00,0.0,WeatherDisplay:10.37,2013-03-11 05:25:00,
2013-03-11 01:30:00,54.9,52.6,30.06,East,100,1.1,1.1,92,0.00,CLR,,0.00,0.0,WeatherDisplay:10.37,2013-03-11 05:30:00,
2013-03-11 01:35:00,54.7,52.4,30.06,East,100,0.0,0.0,92,0.00,CLR,,0.00,0.0,WeatherDisplay:10.37,2013-03-11 05:35:00,
2013-03-11 01:40:00,54.4,52.1,30.06,East,100,0.0,0.0,92,0.00,CLR,,0.00,0.0,WeatherDisplay:10.37,2013-03-11 05:40:00,
2013-03-11 01:45:00,54.3,52.0,30.06,East,100,0.0,0.0,92,0.00,CLR,,0.00,0.0,WeatherDisplay:10.37,2013-03-11 05:45:00,
2013-03-11 01:50:00,54.2,51.9,30.06,East,100,0.0,0.0,92,0.00,CLR,,0.00,0.0,WeatherDisplay:10.37,2013-03-11 05:50:00,
2013-03-11 01:55:00,53.9,51.6,30.06,East,100,0.0,0.0,92,0.00,CLR,,0.00,0.0,WeatherDisplay:10.37,2013-03-11 05:55:00,
2013-03-11 02:00:00,53.5,51.2,30.06,East,100,0.0,0.0,92,0.00,CLR,,0.00,0.0,WeatherDisplay:10.37,2013-03-11 06:00:00,
2013-03-11 02:05:00,53.5,51.2,30.06,East,100,0.0,0.0,92,0.00,CLR,,0.00,0.0,WeatherDisplay:10.37,2013-03-11 06:05:00,
2013-03-11 02:10:00,53.8,51.5,30.06,East,100,0.0,0.0,92,0.00,CLR,,0.00,0.0,WeatherDisplay:10.37,2013-03-11 06:10:00,
2013-03-11 02:15:00,53.6,51.3,30.06,East,100,0.0,0.0,92,0.00,CLR,,0.00,0.0,WeatherDisplay:10.37,2013-03-11 06:15:00,
2013-03-11 02:20:00,53.0,50.7,30.06,East,100,0.0,0.0,92,0.00,CLR,,0.00,0.0,WeatherDisplay:10.37,2013-03-11 06:20:00,
2013-03-11 02:25:00,53.1,51.1,30.06,East,100,0.0,0.0,93,0.00,CLR,,0.00,0.0,WeatherDisplay:10.37,2013-03-11 06:25:00,
2013-03-11 02:30:00,52.8,50.5,30.05,East,100,0.0,0.0,92,0.00,CLR,,0.00,0.0,WeatherDisplay:10.37,2013-03-11 06:30:00,
2013-03-11 02:35:00,52.8,50.8,30.05,East,100,0.0,0.0,93,0.00,CLR,,0.00,0.0,WeatherDisplay:10.37,2013-03-11 06:35:00,
2013-03-11 02:40:00,52.9,50.9,30.05,East,100,0.0,0.0,93,0.00,CLR,,0.00,0.0,WeatherDisplay:10.37,2013-03-11 06:40:00,
2013-03-11 02:46:00,52.8,50.8,30.05,East,100,0.0,0.0,93,0.00,CLR,,0.00,0.0,WeatherDisplay:10.37,2013-03-11 06:46:00,
2013-03-11 02:51:00,52.5,50.5,30.05,East,100,0.0,0.0,93,0.00,CLR,,0.00,0.0,WeatherDisplay:10.37,2013-03-11 06:51:00,
2013-03-11 02:56:00,52.6,50.6,30.05,East,100,0.0,0.0,93,0.00,CLR,,0.00,0.0,WeatherDisplay:10.37,2013-03-11 06:56:00,
2013-03-11 03:01:00,52.7,50.7,30.05,East,100,0.0,0.0,93,0.00,FEW,,0.00,0.0,WeatherDisplay:10.37,2013-03-11 07:01:00,
2013-03-11 03:06:00,52.8,50.8,30.05,East,100,0.0,0.0,93,0.00,FEW,,0.00,0.0,WeatherDisplay:10.37,2013-03-11 07:06:00,
2013-03-11 03:11:00,52.7,50.7,30.05,East,100,0.0,0.0,93,0.00,FEW,,0.00,0.0,WeatherDisplay:10.37,2013-03-11 07:11:00,
2013-03-11 03:16:00,52.4,50.4,30.04,East,100,0.0,0.0,93,0.00,FEW,,0.00,0.0,WeatherDisplay:10.37,2013-03-11 07:16:00,
2013-03-11 03:21:00,52.2,50.2,30.04,East,100,0.0,0.0,93,0.00,FEW,,0.00,0.0,WeatherDisplay:10.37,2013-03-11 07:21:00,
2013-03-11 03:26:00,52.2,50.2,30.04,East,100,0.0,0.0,93,0.00,FEW,,0.00,0.0,WeatherDisplay:10.37,2013-03-11 07:26:00,
2013-03-11 03:31:00,51.9,49.9,30.03,East,100,0.0,0.0,93,0.00,FEW,,0.00,0.0,WeatherDisplay:10.37,2013-03-11 07:31:00,
2013-03-11 03:36:00,51.9,49.9,30.03,East,100,0.0,0.0,93,0.00,FEW,,0.00,0.0,WeatherDisplay:10.37,2013-03-11 07:36:00,
2013-03-11 03:42:00,52.1,50.1,30.03,East,100,0.0,0.0,93,0.00,FEW,,0.00,0.0,WeatherDisplay:10.37,2013-03-11 07:42:00,
2013-03-11 03:47:00,51.8,49.8,30.03,East,100,0.0,0.0,93,0.00,FEW,,0.00,0.0,WeatherDisplay:10.37,2013-03-11 07:47:00,
2013-03-11 03:52:00,51.8,49.8,30.03,East,99,0.0,0.0,93,0.00,FEW,,0.00,0.0,WeatherDisplay:10.37,2013-03-11 07:52:00,
2013-03-11 03:57:00,51.4,49.4,30.03,East,100,0.0,0.0,93,0.00,FEW,,0.00,0.0,WeatherDisplay:10.37,2013-03-11 07:57:00,
2013-03-11 04:04:00,51.6,49.6,30.02,East,100,0.0,0.0,93,0.00,FEW,,0.00,0.0,WeatherDisplay:10.37,2013-03-11 08:04:00,
2013-03-11 04:09:00,51.7,49.7,30.02,East,100,0.0,0.0,93,0.00,FEW,,0.00,0.0,WeatherDisplay:10.37,2013-03-11 08:09:00,
2013-03-11 04:14:00,51.7,49.7,30.01,East,100,0.0,0.0,93,0.00,FEW,,0.00,0.0,WeatherDisplay:10.37,2013-03-11 08:14:00,
2013-03-11 04:19:00,51.2,49.2,30.01,East,100,0.0,0.0,93,0.00,FEW,,0.00,0.0,WeatherDisplay:10.37,2013-03-11 08:19:00,
2013-03-11 04:24:00,50.8,48.8,30.01,East,100,0.0,0.0,93,0.00,FEW,,0.00,0.0,WeatherDisplay:10.37,2013-03-11 08:24:00,
2013-03-11 04:29:00,51.1,49.4,30.01,East,100,0.0,0.0,94,0.00,FEW,,0.00,0.0,WeatherDisplay:10.37,2013-03-11 08:29:00,
2013-03-11 04:36:00,50.8,48.8,30.01,East,100,0.0,0.0,93,0.00,FEW,,0.00,0.0,WeatherDisplay:10.37,2013-03-11 08:36:00,
2013-03-11 04:42:00,50.8,48.8,30.01,East,100,0.0,0.0,93,0.00,FEW,,0.00,0.0,WeatherDisplay:10.37,2013-03-11 08:42:00,
2013-03-11 04:47:00,50.5,48.6,30.00,East,100,0.0,0.0,93,0.00,FEW,,0.00,0.0,WeatherDisplay:10.37,2013-03-11 08:47:00,
2013-03-11 04:52:00,50.5,48.6,30.00,East,100,0.0,0.0,93,0.00,FEW,,0.00,0.0,WeatherDisplay:10.37,2013-03-11 08:52:00,
2013-03-11 04:57:00,50.4,48.7,30.00,East,100,0.0,0.0,94,0.00,FEW,,0.00,0.0,WeatherDisplay:10.37,2013-03-11 08:57:00,
2013-03-11 05:02:00,50.8,49.1,29.99,East,100,0.0,0.0,94,0.00,CLR,,0.00,0.0,WeatherDisplay:10.37,2013-03-11 09:02:00,
2013-03-11 05:07:00,50.6,48.9,29.99,East,100,0.0,0.0,94,0.00,CLR,,0.00,0.0,WeatherDisplay:10.37,2013-03-11 09:07:00,
2013-03-11 05:12:00,50.4,48.5,29.99,East,100,0.0,0.0,93,0.00,CLR,,0.00,0.0,WeatherDisplay:10.37,2013-03-11 09:12:00,
2013-03-11 05:17:00,50.5,48.8,29.98,East,100,0.0,0.0,94,0.00,CLR,,0.00,0.0,WeatherDisplay:10.37,2013-03-11 09:17:00,
2013-03-11 05:23:00,50.6,48.9,29.98,East,100,0.0,0.0,94,0.00,CLR,,0.00,0.0,WeatherDisplay:10.37,2013-03-11 09:23:00,
2013-03-11 05:28:00,50.5,48.8,29.98,East,100,0.0,0.0,94,0.00,CLR,,0.00,0.0,WeatherDisplay:10.37,2013-03-11 09:28:00,
2013-03-11 05:33:00,50.7,49.0,29.98,East,100,0.0,0.0,94,0.00,CLR,,0.00,0.0,WeatherDisplay:10.37,2013-03-11 09:33:00,
2013-03-11 05:38:00,50.5,48.8,29.98,East,100,0.0,0.0,94,0.00,CLR,,0.00,0.0,WeatherDisplay:10.37,2013-03-11 09:38:00,
2013-03-11 05:43:00,50.7,49.0,29.98,East,100,0.0,0.0,94,0.00,CLR,,0.00,0.0,WeatherDisplay:10.37,2013-03-11 09:43:00,
2013-03-11 05:48:00,50.7,49.0,29.99,East,100,0.0,0.0,94,0.00,CLR,,0.00,0.0,WeatherDisplay:10.37,2013-03-11 09:48:00,
2013-03-11 05:53:00,50.5,48.6,29.99,East,99,0.0,0.0,93,0.00,CLR,,0.00,0.0,WeatherDisplay:10.37,2013-03-11 09:53:00,
2013-03-11 05:58:00,50.4,48.7,29.99,East,100,0.0,0.0,94,0.00,CLR,,0.00,0.0,WeatherDisplay:10.37,2013-03-11 09:58:00,
2013-03-11 06:03:00,50.4,48.7,29.99,East,100,0.0,0.0,94,0.00,CLR,,0.00,0.0,WeatherDisplay:10.37,2013-03-11 10:03:00,
2013-03-11 06:08:00,50.5,48.8,29.99,East,100,0.0,0.0,94,0.00,CLR,,0.00,0.0,WeatherDisplay:10.37,2013-03-11 10:08:00,
2013-03-11 06:13:00,49.8,47.9,29.99,East,100,0.0,0.0,93,0.00,CLR,,0.00,0.0,WeatherDisplay:10.37,2013-03-11 10:13:00,
2013-03-11 06:18:00,49.7,48.0,29.99,East,100,0.0,0.0,94,0.00,CLR,,0.00,0.0,WeatherDisplay:10.37,2013-03-11 10:18:00,
2013-03-11 06:23:00,50.2,48.5,29.99,East,100,0.0,0.0,94,0.00,CLR,,0.00,0.0,WeatherDisplay:10.37,2013-03-11 10:23:00,
2013-03-11 06:28:00,49.9,48.2,29.99,East,100,0.0,0.0,94,0.00,CLR,,0.00,0.0,WeatherDisplay:10.37,2013-03-11 10:28:00,
2013-03-11 06:33:00,50.3,48.6,29.99,East,100,0.0,0.0,94,0.00,CLR,,0.00,0.0,WeatherDisplay:10.37,2013-03-11 10:33:00,
2013-03-11 06:38:00,50.1,48.4,29.99,East,100,0.0,0.0,94,0.00,CLR,,0.00,0.0,WeatherDisplay:10.37,2013-03-11 10:38:00,
2013-03-11 06:43:00,50.1,48.4,29.99,East,100,0.0,0.0,94,0.00,CLR,,0.00,0.0,WeatherDisplay:10.37,2013-03-11 10:43:00,
2013-03-11 06:48:00,50.5,48.8,29.99,East,100,0.0,0.0,94,0.00,CLR,,0.00,0.0,WeatherDisplay:10.37,2013-03-11 10:48:00,
2013-03-11 06:53:00,49.7,47.8,29.99,East,100,0.0,0.0,93,0.00,CLR,,0.00,0.0,WeatherDisplay:10.37,2013-03-11 10:53:00,
2013-03-11 06:58:00,50.1,48.4,29.99,East,100,0.0,0.0,94,0.00,CLR,,0.00,0.0,WeatherDisplay:10.37,2013-03-11 10:58:00,
2013-03-11 07:03:00,50.2,48.5,29.99,East,100,0.0,0.0,94,0.00,CLR,,0.00,0.0,WeatherDisplay:10.37,2013-03-11 11:03:00,
2013-03-11 07:08:00,50.2,48.5,29.99,East,100,0.0,0.0,94,0.00,CLR,,0.00,0.0,WeatherDisplay:10.37,2013-03-11 11:08:00,
2013-03-11 07:13:00,50.3,48.6,29.99,East,99,0.0,0.0,94,0.00,CLR,,0.00,0.0,WeatherDisplay:10.37,2013-03-11 11:13:00,
2013-03-11 07:18:00,49.9,48.2,29.99,East,100,0.0,0.0,94,0.00,CLR,,0.00,0.0,WeatherDisplay:10.37,2013-03-11 11:18:00,
2013-03-11 07:23:00,49.7,48.0,29.99,East,100,0.0,0.0,94,0.00,CLR,,0.00,0.0,WeatherDisplay:10.37,2013-03-11 11:23:00,
2013-03-11 07:28:00,49.5,47.8,29.99,East,100,0.0,0.0,94,0.00,CLR,,0.00,0.0,WeatherDisplay:10.37,2013-03-11 11:28:00,
2013-03-11 07:33:00,49.9,48.2,29.99,East,100,0.0,0.0,94,0.00,CLR,,0.00,0.0,WeatherDisplay:10.37,2013-03-11 11:33:00,
2013-03-11 07:38:00,50.0,48.3,29.99,East,100,0.0,0.0,94,0.00,CLR,,0.00,0.0,WeatherDisplay:10.37,2013-03-11 11:38:00,
2013-03-11 07:43:00,49.9,48.2,29.99,East,100,0.0,0.0,94,0.00,CLR,,0.00,5.0,WeatherDisplay:10.37,2013-03-11 11:43:00,
2013-03-11 07:48:00,49.9,48.2,29.99,East,100,0.0,0.0,94,0.00,CLR,,0.00,11.0,WeatherDisplay:10.37,2013-03-11 11:48:00,
2013-03-11 07:53:00,49.9,48.2,29.99,East,100,0.0,0.0,94,0.00,CLR,,0.00,14.0,WeatherDisplay:10.37,2013-03-11 11:53:00,
2013-03-11 07:58:00,49.9,48.2,29.99,East,100,0.0,0.0,94,0.00,CLR,,0.00,19.0,WeatherDisplay:10.37,2013-03-11 11:58:00,
2013-03-11 08:03:00,49.9,48.2,29.99,East,100,0.0,0.0,94,0.00,SCT,,0.00,25.0,WeatherDisplay:10.37,2013-03-11 12:03:00,
2013-03-11 08:08:00,49.6,47.9,29.99,East,100,0.0,0.0,94,0.00,SCT,,0.00,28.0,WeatherDisplay:10.37,2013-03-11 12:08:00,
2013-03-11 08:13:00,49.9,48.2,29.99,East,100,0.0,0.0,94,0.00,SCT,,0.00,35.0,WeatherDisplay:10.37,2013-03-11 12:13:00,
2013-03-11 08:18:00,50.6,49.2,29.99,East,100,0.0,0.0,95,0.00,SCT,,0.00,60.0,WeatherDisplay:10.37,2013-03-11 12:18:00,
2013-03-11 08:23:00,51.1,49.4,29.99,East,100,0.0,0.0,94,0.00,SCT,,0.00,104.0,WeatherDisplay:10.37,2013-03-11 12:23:00,
2013-03-11 08:29:00,52.0,50.6,29.99,East,100,0.0,0.0,95,0.00,SCT,,0.00,125.0,WeatherDisplay:10.37,2013-03-11 12:29:00,
2013-03-11 08:34:00,52.8,51.4,30.00,East,100,0.0,0.0,95,0.00,SCT,,0.00,141.0,WeatherDisplay:10.37,2013-03-11 12:34:00,
2013-03-11 08:39:00,53.7,52.3,30.00,East,100,0.0,0.0,95,0.00,SCT,,0.00,156.0,WeatherDisplay:10.37,2013-03-11 12:39:00,
2013-03-11 08:44:00,54.6,53.2,30.00,East,99,0.0,0.0,95,0.00,SCT,,0.00,179.0,WeatherDisplay:10.37,2013-03-11 12:44:00,
2013-03-11 08:49:00,55.7,54.3,30.01,East,100,1.1,0.0,95,0.00,SCT,,0.00,190.0,WeatherDisplay:10.37,2013-03-11 12:49:00,
2013-03-11 08:54:00,57.1,55.7,30.01,ESE,116,0.0,0.0,95,0.00,SCT,,0.00,204.0,WeatherDisplay:10.37,2013-03-11 12:54:00,
2013-03-11 08:59:00,58.7,57.3,30.01,SE,142,2.3,2.3,95,0.00,SCT,,0.00,229.0,WeatherDisplay:10.37,2013-03-11 12:59:00,
2013-03-11 09:04:00,60.0,58.0,30.00,South,173,0.0,0.0,93,0.00,SCT,,0.00,250.0,WeatherDisplay:10.37,2013-03-11 13:04:00,
2013-03-11 09:09:00,61.0,58.7,30.00,South,169,2.3,2.3,92,0.00,SCT,,0.00,192.0,WeatherDisplay:10.37,2013-03-11 13:09:00,
2013-03-11 09:14:00,61.9,58.9,30.00,ESE,113,6.9,6.9,90,0.00,SCT,,0.00,292.0,WeatherDisplay:10.37,2013-03-11 13:14:00,
2013-03-11 09:19:00,62.8,59.2,30.00,SSW,192,4.6,4.6,88,0.00,SCT,,0.00,315.0,WeatherDisplay:10.37,2013-03-11 13:19:00,
2013-03-11 09:24:00,63.6,59.0,30.00,SSE,159,6.9,6.9,85,0.00,SCT,,0.00,323.0,WeatherDisplay:10.37,2013-03-11 13:24:00,
2013-03-11 09:29:00,64.4,59.5,30.00,SSW,192,6.9,6.9,84,0.00,SCT,,0.00,343.0,WeatherDisplay:10.37,2013-03-11 13:29:00,
2013-03-11 09:34:00,65.0,59.7,30.00,SSW,213,6.9,6.9,83,0.00,SCT,,0.00,383.0,WeatherDisplay:10.37,2013-03-11 13:34:00,
2013-03-11 09:39:00,65.5,59.2,30.00,SSE,148,8.1,8.1,80,0.00,SCT,,0.00,408.0,WeatherDisplay:10.37,2013-03-11 13:39:00,
2013-03-11 09:44:00,66.4,59.3,30.00,SSE,165,9.2,9.2,78,0.00,SCT,,0.00,436.0,WeatherDisplay:10.37,2013-03-11 13:44:00,
2013-03-11 09:49:00,66.9,59.1,30.00,SSW,193,2.3,2.3,76,0.00,SCT,,0.00,483.0,WeatherDisplay:10.37,2013-03-11 13:49:00,
2013-03-11 09:54:00,67.6,59.4,30.00,South,173,11.5,11.5,75,0.00,SCT,,0.00,568.0,WeatherDisplay:10.37,2013-03-11 13:54:00,
2013-03-11 09:59:00,68.5,59.1,30.00,SW,219,12.7,12.7,72,0.00,SCT,,0.00,517.0,WeatherDisplay:10.37,2013-03-11 13:59:00,
2013-03-11 10:04:00,68.8,59.4,30.00,SSW,206,10.4,10.4,72,0.00,BKN,,0.00,461.0,WeatherDisplay:10.37,2013-03-11 14:04:00,
2013-03-11 10:09:00,69.3,59.1,30.00,SW,227,8.1,8.1,70,0.00,BKN,,0.00,415.0,WeatherDisplay:10.37,2013-03-11 14:09:00,
2013-03-11 10:14:00,69.8,59.2,30.01,SSW,203,6.9,6.9,69,0.00,BKN,,0.00,362.0,WeatherDisplay:10.37,2013-03-11 14:14:00,
2013-03-11 10:19:00,70.3,59.2,30.01,South,171,8.1,8.1,68,0.00,BKN,,0.00,513.0,WeatherDisplay:10.37,2013-03-11 14:19:00,
2013-03-11 10:24:00,71.2,59.3,30.01,South,184,9.2,9.2,66,0.00,BKN,,0.00,575.0,WeatherDisplay:10.37,2013-03-11 14:24:00,
2013-03-11 10:29:00,71.9,59.1,30.01,SSE,163,10.4,10.4,64,0.00,BKN,,0.00,591.0,WeatherDisplay:10.37,2013-03-11 14:29:00,
2013-03-11 10:34:00,71.6,57.9,30.01,East,94,15.0,15.0,62,0.00,BKN,,0.00,461.0,WeatherDisplay:10.37,2013-03-11 14:34:00,
2013-03-11 10:39:00,71.3,58.5,30.01,South,177,7.7,7.7,64,0.00,BKN,,0.00,339.0,WeatherDisplay:10.37,2013-03-11 14:39:00,
2013-03-11 10:44:00,71.4,58.6,30.01,SSE,153,10.4,10.4,64,0.00,BKN,,0.00,439.0,WeatherDisplay:10.37,2013-03-11 14:44:00,
2013-03-11 10:49:00,71.6,58.8,30.01,South,184,8.1,8.5,64,0.00,BKN,,0.00,557.0,WeatherDisplay:10.37,2013-03-11 14:49:00,
2013-03-11 10:54:00,72.0,58.7,30.01,SSW,196,12.7,12.7,63,0.00,BKN,,0.00,450.0,WeatherDisplay:10.37,2013-03-11 14:54:00,
2013-03-11 10:59:00,72.2,58.9,30.00,SSW,202,12.7,12.7,63,0.00,BKN,,0.00,592.0,WeatherDisplay:10.37,2013-03-11 14:59:00,
2013-03-11 11:04:00,72.4,58.2,30.00,SSW,196,16.1,16.1,61,0.00,BKN,,0.00,352.0,WeatherDisplay:10.37,2013-03-11 15:04:00,
2013-03-11 11:09:00,71.7,58.0,30.00,South,184,12.7,12.7,62,0.00,BKN,,0.00,450.0,WeatherDisplay:10.37,2013-03-11 15:09:00,
2013-03-11 11:14:00,72.1,58.4,30.00,ESE,115,12.7,12.7,62,0.00,BKN,,0.00,392.0,WeatherDisplay:10.37,2013-03-11 15:14:00,
2013-03-11 11:19:00,72.2,58.0,30.00,SW,219,12.7,12.7,61,0.00,BKN,,0.00,348.0,WeatherDisplay:10.37,2013-03-11 15:19:00,
2013-03-11 11:24:00,72.5,58.3,30.00,SSE,155,11.5,11.5,61,0.00,BKN,,0.00,622.0,WeatherDisplay:10.37,2013-03-11 15:24:00,
2013-03-11 11:29:00,73.0,57.8,30.01,SSE,150,11.5,11.5,59,0.00,BKN,,0.00,564.0,WeatherDisplay:10.37,2013-03-11 15:29:00,
2013-03-11 11:34:00,73.0,58.3,30.01,South,169,9.2,9.2,60,0.00,BKN,,0.00,476.0,WeatherDisplay:10.37,2013-03-11 15:34:00,
2013-03-11 11:39:00,73.7,58.0,30.01,SSW,211,8.8,8.8,58,0.00,BKN,,0.00,396.0,WeatherDisplay:10.37,2013-03-11 15:39:00,
2013-03-11 11:44:00,73.4,58.2,30.01,SSW,192,12.7,12.7,59,0.00,BKN,,0.00,327.0,WeatherDisplay:10.37,2013-03-11 15:44:00,
2013-03-11 11:49:00,73.0,57.8,30.01,SSW,208,12.1,12.1,59,0.00,BKN,,0.00,323.0,WeatherDisplay:10.37,2013-03-11 15:49:00,
2013-03-11 11:55:00,72.9,57.7,30.01,SSW,209,10.4,10.4,59,0.00,BKN,,0.00,225.0,WeatherDisplay:10.37,2013-03-11 15:55:00,
2013-03-11 12:00:00,72.5,57.8,30.01,SSW,213,12.7,12.7,60,0.00,BKN,,0.00,223.0,WeatherDisplay:10.37,2013-03-11 16:00:00,
2013-03-11 12:05:00,72.5,57.8,30.01,SSW,213,9.2,9.2,60,0.00,BKN,,0.00,322.0,WeatherDisplay:10.37,2013-03-11 16:05:00,
2013-03-11 12:10:00,72.8,58.1,30.01,South,185,12.7,12.7,60,0.00,BKN,,0.00,338.0,WeatherDisplay:10.37,2013-03-11 16:10:00,
2013-03-11 12:15:00,74.3,59.0,30.00,SSW,211,13.2,13.2,59,0.00,BKN,,0.00,464.0,WeatherDisplay:10.37,2013-03-11 16:15:00,
2013-03-11 12:20:00,74.2,58.5,30.00,SSW,198,8.1,8.1,58,0.00,BKN,,0.00,362.0,WeatherDisplay:10.37,2013-03-11 16:20:00,
2013-03-11 12:25:00,75.2,59.4,30.00,SSW,204,9.2,9.2,58,0.00,BKN,,0.00,327.0,WeatherDisplay:10.37,2013-03-11 16:25:00,
2013-03-11 12:30:00,75.6,59.8,29.99,SSE,150,12.7,12.7,58,0.00,BKN,,0.00,837.0,WeatherDisplay:10.37,2013-03-11 16:30:00,
2013-03-11 12:35:00,75.7,58.9,29.99,SW,227,16.1,16.1,56,0.00,BKN,,0.00,410.0,WeatherDisplay:10.37,2013-03-11 16:35:00,
2013-03-11 12:40:00,75.1,58.3,29.99,South,180,12.7,12.7,56,0.00,BKN,,0.00,357.0,WeatherDisplay:10.37,2013-03-11 16:40:00,
2013-03-11 12:45:00,75.2,58.4,29.99,SW,217,13.8,13.8,56,0.00,BKN,,0.00,519.0,WeatherDisplay:10.37,2013-03-11 16:45:00,
2013-03-11 12:50:00,76.0,58.7,29.99,SSW,211,12.1,12.1,55,0.00,BKN,,0.00,455.0,WeatherDisplay:10.37,2013-03-11 16:50:00,
2013-03-11 12:55:00,75.5,58.2,29.99,SSE,159,10.4,10.4,55,0.00,BKN,,0.00,362.0,WeatherDisplay:10.37,2013-03-11 16:55:00,
2013-03-11 13:00:00,75.9,59.6,29.98,ESE,113,8.1,8.1,57,0.00,BKN,,0.00,422.0,WeatherDisplay:10.37,2013-03-11 17:00:00,
2013-03-11 13:05:00,75.7,58.9,29.98,SW,221,9.2,9.2,56,0.00,BKN,,0.00,394.0,WeatherDisplay:10.37,2013-03-11 17:05:00,
2013-03-11 13:10:00,76.4,61.0,29.98,SW,229,9.9,9.9,59,0.00,BKN,,0.00,990.0,WeatherDisplay:10.37,2013-03-11 17:10:00,
2013-03-11 13:15:00,76.2,58.9,29.98,South,189,9.2,9.2,55,0.00,BKN,,0.00,301.0,WeatherDisplay:10.37,2013-03-11 17:15:00,
2013-03-11 13:20:00,75.5,58.7,29.98,SSE,165,5.8,5.8,56,0.00,OVC,,0.00,392.0,WeatherDisplay:10.37,2013-03-11 17:20:00,
2013-03-11 13:25:00,75.8,59.0,29.98,SSW,196,4.6,4.6,56,0.00,OVC,,0.00,341.0,WeatherDisplay:10.37,2013-03-11 17:25:00,
2013-03-11 13:30:00,75.6,58.3,29.96,South,172,2.3,2.3,55,0.00,OVC,,0.00,283.0,WeatherDisplay:10.37,2013-03-11 17:30:00,
2013-03-11 13:35:00,75.0,58.7,29.96,SSW,206,9.2,9.2,57,0.00,OVC,,0.00,278.0,WeatherDisplay:10.37,2013-03-11 17:35:00,
2013-03-11 13:40:00,74.8,59.0,29.96,SSE,157,5.8,5.8,58,0.00,OVC,,0.00,438.0,WeatherDisplay:10.37,2013-03-11 17:40:00,
2013-03-11 13:45:00,76.0,59.2,29.96,SSE,162,8.1,8.1,56,0.00,OVC,,0.00,777.0,WeatherDisplay:10.37,2013-03-11 17:45:00,
2013-03-11 13:50:00,75.6,58.3,29.96,SW,221,9.2,9.2,55,0.00,OVC,,0.00,253.0,WeatherDisplay:10.37,2013-03-11 17:50:00,
2013-03-11 13:55:00,75.3,58.5,29.96,SSW,199,5.8,5.8,56,0.00,OVC,,0.00,202.0,WeatherDisplay:10.37,2013-03-11 17:55:00,
2013-03-11 14:00:00,75.3,59.0,29.95,SSW,213,10.4,10.4,57,0.00,OVC,,0.00,348.0,WeatherDisplay:10.37,2013-03-11 18:00:00,
2013-03-11 14:05:00,75.5,59.7,29.95,ESE,107,6.9,6.9,58,0.00,OVC,,0.00,332.0,WeatherDisplay:10.37,2013-03-11 18:05:00,
2013-03-11 14:10:00,75.4,60.1,29.95,South,176,8.1,8.1,59,0.00,OVC,,0.00,287.0,WeatherDisplay:10.37,2013-03-11 18:10:00,
2013-03-11 14:15:00,75.3,59.5,29.94,SSW,209,6.9,6.9,58,0.00,OVC,,0.00,529.0,WeatherDisplay:10.37,2013-03-11 18:15:00,
2013-03-11 14:20:00,75.7,59.4,29.94,SSW,201,19.6,19.6,57,0.00,OVC,,0.00,701.0,WeatherDisplay:10.37,2013-03-11 18:20:00,
2013-03-11 14:25:00,75.7,59.4,29.94,SSE,155,9.2,9.2,57,0.00,OVC,,0.00,578.0,WeatherDisplay:10.37,2013-03-11 18:25:00,
2013-03-11 14:30:00,75.6,59.8,29.92,SSW,197,10.4,10.4,58,0.00,OVC,,0.00,705.0,WeatherDisplay:10.37,2013-03-11 18:30:00,
2013-03-11 14:35:00,76.2,59.9,29.92,South,182,10.4,10.4,57,0.00,OVC,,0.00,461.0,WeatherDisplay:10.37,2013-03-11 18:35:00,
2013-03-11 14:40:00,76.6,60.2,29.92,South,186,8.1,8.1,57,0.00,OVC,,0.00,541.0,WeatherDisplay:10.37,2013-03-11 18:40:00,
2013-03-11 14:45:00,77.2,59.3,29.91,SSW,210,10.4,10.4,54,0.00,OVC,,0.00,429.0,WeatherDisplay:10.37,2013-03-11 18:45:00,
2013-03-11 14:50:00,77.3,59.9,29.91,SW,228,13.8,13.8,55,0.00,OVC,,0.00,441.0,WeatherDisplay:10.37,2013-03-11 18:50:00,
2013-03-11 14:55:00,77.4,58.4,29.91,South,175,15.4,15.4,52,0.00,OVC,,0.00,272.0,WeatherDisplay:10.37,2013-03-11 18:55:00,
2013-03-11 15:00:00,76.6,58.2,29.91,SW,223,12.7,12.7,53,0.00,OVC,,0.00,336.0,WeatherDisplay:10.37,2013-03-11 19:00:00,
2013-03-11 15:05:00,76.7,58.8,29.91,South,171,10.4,10.4,54,0.00,OVC,,0.00,506.0,WeatherDisplay:10.37,2013-03-11 19:05:00,
2013-03-11 15:10:00,77.3,57.8,29.91,SSW,205,11.5,11.5,51,0.00,OVC,,0.00,512.0,WeatherDisplay:10.37,2013-03-11 19:10:00,
2013-03-11 15:15:00,77.2,58.2,29.91,SW,231,12.7,12.7,52,0.00,OVC,,0.00,446.0,WeatherDisplay:10.37,2013-03-11 19:15:00,
2013-03-11 15:20:00,77.1,57.6,29.91,SW,235,12.7,12.7,51,0.00,OVC,,0.00,517.0,WeatherDisplay:10.37,2013-03-11 19:20:00,
2013-03-11 15:25:00,77.0,58.6,29.91,SW,235,10.4,10.4,53,0.00,OVC,,0.00,392.0,WeatherDisplay:10.37,2013-03-11 19:25:00,
2013-03-11 15:30:00,76.6,58.2,29.90,SW,227,12.1,12.1,53,0.00,OVC,,0.00,329.0,WeatherDisplay:10.37,2013-03-11 19:30:00,
2013-03-11 15:35:00,76.3,57.4,29.90,SSW,212,12.7,12.7,52,0.00,OVC,,0.00,279.0,WeatherDisplay:10.37,2013-03-11 19:35:00,
2013-03-11 15:40:00,76.0,57.1,29.90,South,181,15.0,15.0,52,0.00,OVC,,0.00,241.0,WeatherDisplay:10.37,2013-03-11 19:40:00,
2013-03-11 15:45:00,75.5,57.2,29.89,South,184,11.5,11.5,53,0.00,OVC,,0.00,281.0,WeatherDisplay:10.37,2013-03-11 19:45:00,
2013-03-11 15:50:00,75.7,57.4,29.89,SSE,165,15.0,15.0,53,0.00,OVC,,0.00,207.0,WeatherDisplay:10.37,2013-03-11 19:50:00,
2013-03-11 15:55:00,75.5,57.2,29.89,SW,232,10.4,10.4,53,0.00,OVC,,0.00,192.0,WeatherDisplay:10.37,2013-03-11 19:55:00,
2013-03-11 16:00:00,75.4,57.1,29.89,South,170,13.8,13.8,53,0.00,OVC,,0.00,218.0,WeatherDisplay:10.37,2013-03-11 20:00:00,
2013-03-11 16:05:00,75.3,57.5,29.89,South,180,11.5,11.5,54,0.00,OVC,,0.00,281.0,WeatherDisplay:10.37,2013-03-11 20:05:00,
2013-03-11 16:10:00,75.7,58.4,29.89,SW,224,8.1,8.1,55,0.00,OVC,,0.00,197.0,WeatherDisplay:10.37,2013-03-11 20:10:00,
2013-03-11 16:15:00,75.4,57.6,29.88,South,182,8.1,8.1,54,0.00,OVC,,0.00,199.0,WeatherDisplay:10.37,2013-03-11 20:15:00,
2013-03-11 16:20:00,75.3,58.0,29.88,SW,217,11.5,11.5,55,0.00,OVC,,0.00,216.0,WeatherDisplay:10.37,2013-03-11 20:20:00,
2013-03-11 16:25:00,75.2,57.4,29.88,SSE,161,8.1,8.1,54,0.00,OVC,,0.00,169.0,WeatherDisplay:10.37,2013-03-11 20:25:00,
2013-03-11 16:30:00,75.3,57.5,29.87,SSW,208,6.9,6.9,54,0.00,OVC,,0.00,220.0,WeatherDisplay:10.37,2013-03-11 20:30:00,
2013-03-11 16:35:00,75.4,58.1,29.87,SSW,213,6.9,6.9,55,0.00,OVC,,0.00,234.0,WeatherDisplay:10.37,2013-03-11 20:35:00,
2013-03-11 16:41:00,75.6,58.3,29.87,SSW,196,10.4,10.4,55,0.00,OVC,,0.00,271.0,WeatherDisplay:10.37,2013-03-11 20:41:00,
2013-03-11 16:46:00,75.6,58.3,29.87,SW,227,8.1,8.1,55,0.00,OVC,,0.00,241.0,WeatherDisplay:10.37,2013-03-11 20:46:00,
2013-03-11 16:51:00,75.3,59.0,29.87,ESE,117,5.8,5.8,57,0.00,OVC,,0.00,220.0,WeatherDisplay:10.37,2013-03-11 20:51:00,
2013-03-11 16:56:00,74.5,60.6,29.87,ESE,110,5.8,5.8,62,0.00,OVC,,0.00,193.0,WeatherDisplay:10.37,2013-03-11 20:56:00,
2013-03-11 17:01:00,74.3,60.4,29.87,ESE,107,6.9,6.9,62,0.00,BKN,,0.00,207.0,WeatherDisplay:10.37,2013-03-11 21:01:00,
2013-03-11 17:06:00,74.2,60.8,29.87,SE,128,5.8,5.8,63,0.00,BKN,,0.00,178.0,WeatherDisplay:10.37,2013-03-11 21:06:00,
2013-03-11 17:11:00,73.9,60.5,29.87,SSE,165,4.4,4.4,63,0.00,BKN,,0.00,130.0,WeatherDisplay:10.37,2013-03-11 21:11:00,
2013-03-11 17:16:00,73.5,60.1,29.87,SSW,207,5.8,5.8,63,0.00,BKN,,0.00,111.0,WeatherDisplay:10.37,2013-03-11 21:16:00,
2013-03-11 17:21:00,73.3,59.9,29.87,East,101,6.9,6.9,63,0.00,BKN,,0.00,151.0,WeatherDisplay:10.37,2013-03-11 21:21:00,
2013-03-11 17:26:00,73.2,59.4,29.87,ESE,112,8.1,9.0,62,0.00,BKN,,0.00,171.0,WeatherDisplay:10.37,2013-03-11 21:26:00,
2013-03-11 17:31:00,73.2,59.8,29.87,ESE,107,12.1,12.1,63,0.00,BKN,,0.00,160.0,WeatherDisplay:10.37,2013-03-11 21:31:00,
2013-03-11 17:37:00,73.1,59.8,29.87,ESE,123,9.2,9.2,63,0.00,BKN,,0.00,148.0,WeatherDisplay:10.37,2013-03-11 21:37:00,
2013-03-11 17:42:00,73.1,60.2,29.87,SE,130,5.8,5.8,64,0.00,BKN,,0.00,130.0,WeatherDisplay:10.37,2013-03-11 21:42:00,
2013-03-11 17:47:00,73.1,59.8,29.86,SE,128,8.8,8.8,63,0.00,BKN,,0.00,128.0,WeatherDisplay:10.37,2013-03-11 21:47:00,
2013-03-11 17:52:00,73.0,60.1,29.86,SE,130,4.6,4.6,64,0.00,BKN,,0.00,105.0,WeatherDisplay:10.37,2013-03-11 21:52:00,
2013-03-11 17:57:00,72.8,59.9,29.86,SE,133,8.1,8.1,64,0.00,BKN,,0.00,116.0,WeatherDisplay:10.37,2013-03-11 21:57:00,
2013-03-11 18:02:00,72.6,59.7,29.86,SSW,203,6.9,6.9,64,0.00,BKN,,0.00,111.0,WeatherDisplay:10.37,2013-03-11 22:02:00,
2013-03-11 18:07:00,72.6,59.7,29.86,SE,139,8.1,8.1,64,0.00,BKN,,0.00,105.0,WeatherDisplay:10.37,2013-03-11 22:07:00,
2013-03-11 18:12:00,72.5,59.6,29.86,SE,146,9.2,9.2,64,0.00,BKN,,0.00,95.0,WeatherDisplay:10.37,2013-03-11 22:12:00,
2013-03-11 18:18:00,72.4,60.0,29.86,ESE,109,4.6,4.6,65,0.00,BKN,,0.00,93.0,WeatherDisplay:10.37,2013-03-11 22:18:00,
2013-03-11 18:23:00,72.3,60.3,29.86,ESE,115,5.8,5.8,66,0.00,BKN,,0.00,77.0,WeatherDisplay:10.37,2013-03-11 22:23:00,
2013-03-11 18:28:00,72.0,60.0,29.86,East,88,8.8,8.8,66,0.00,BKN,,0.00,69.0,WeatherDisplay:10.37,2013-03-11 22:28:00,
2013-03-11 18:33:00,71.7,59.7,29.85,East,81,7.7,7.7,66,0.00,BKN,,0.00,79.0,WeatherDisplay:10.37,2013-03-11 22:33:00,
2013-03-11 18:38:00,71.6,59.6,29.85,SE,144,6.9,6.9,66,0.00,BKN,,0.00,65.0,WeatherDisplay:10.37,2013-03-11 22:38:00,
2013-03-11 18:43:00,71.4,59.9,29.85,SE,125,9.2,9.2,67,0.00,BKN,,0.00,67.0,WeatherDisplay:10.37,2013-03-11 22:43:00,
2013-03-11 18:48:00,71.3,59.8,29.85,ESE,102,9.2,9.2,67,0.00,BKN,,0.00,62.0,WeatherDisplay:10.37,2013-03-11 22:48:00,
2013-03-11 18:53:00,71.1,60.0,29.85,ESE,121,8.8,8.8,68,0.00,BKN,,0.00,51.0,WeatherDisplay:10.37,2013-03-11 22:53:00,
2013-03-11 18:58:00,70.8,59.7,29.85,SSW,197,13.8,13.8,68,0.00,BKN,,0.00,37.0,WeatherDisplay:10.37,2013-03-11 22:58:00,
2013-03-11 19:03:00,70.5,59.4,29.85,East,93,6.9,6.9,68,0.00,OVC,,0.00,26.0,WeatherDisplay:10.37,2013-03-11 23:03:00,
2013-03-11 19:08:00,70.3,59.6,29.85,SSE,160,9.2,9.2,69,0.00,OVC,,0.00,21.0,WeatherDisplay:10.37,2013-03-11 23:08:00,
2013-03-11 19:13:00,70.0,59.4,29.85,East,98,6.6,6.6,69,0.00,OVC,,0.00,16.0,WeatherDisplay:10.37,2013-03-11 23:13:00,
2013-03-11 19:18:00,69.7,59.1,29.84,South,177,6.9,6.9,69,0.00,OVC,,0.00,11.0,WeatherDisplay:10.37,2013-03-11 23:18:00,
2013-03-11 19:23:00,69.5,58.9,29.84,SSE,150,5.8,5.8,69,0.00,OVC,,0.00,7.0,WeatherDisplay:10.37,2013-03-11 23:23:00,
2013-03-11 19:28:00,69.2,59.0,29.84,South,182,4.6,4.6,70,0.00,OVC,,0.00,0.0,WeatherDisplay:10.37,2013-03-11 23:28:00,
2013-03-11 19:33:00,69.0,58.8,29.84,SE,145,10.4,10.4,70,0.00,OVC,,0.00,0.0,WeatherDisplay:10.37,2013-03-11 23:33:00,
2013-03-11 19:38:00,68.8,58.6,29.84,East,94,6.9,6.9,70,0.00,OVC,,0.00,0.0,WeatherDisplay:10.37,2013-03-11 23:38:00,
2013-03-11 19:43:00,68.6,58.4,29.84,ESE,107,8.1,8.1,70,0.00,OVC,,0.00,0.0,WeatherDisplay:10.37,2013-03-11 23:43:00,
2013-03-11 19:48:00,68.6,58.4,29.84,SSE,160,9.2,9.2,70,0.00,OVC,,0.00,0.0,WeatherDisplay:10.37,2013-03-11 23:48:00,
2013-03-11 19:53:00,68.5,58.3,29.84,SSE,154,8.1,8.1,70,0.00,OVC,,0.00,0.0,WeatherDisplay:10.37,2013-03-11 23:53:00,
2013-03-11 19:58:00,68.3,58.1,29.84,SE,146,6.9,6.9,70,0.00,OVC,,0.00,0.0,WeatherDisplay:10.37,2013-03-11 23:58:00,
2013-03-11 20:03:00,68.2,58.0,29.84,SE,126,6.9,7.0,70,0.00,OVC,,0.00,0.0,WeatherDisplay:10.37,2013-03-12 00:03:00,
2013-03-11 20:08:00,68.1,57.5,29.84,ESE,109,6.9,6.9,69,0.00,OVC,,0.00,0.0,WeatherDisplay:10.37,2013-03-12 00:08:00,
2013-03-11 20:13:00,68.0,57.4,29.84,SSE,150,6.9,6.9,69,0.00,OVC,,0.00,0.0,WeatherDisplay:10.37,2013-03-12 00:13:00,
2013-03-11 20:18:00,68.0,57.4,29.84,South,169,8.1,8.1,69,0.00,OVC,,0.00,0.0,WeatherDisplay:10.37,2013-03-12 00:18:00,
2013-03-11 20:23:00,67.9,57.4,29.84,ESE,108,10.4,10.4,69,0.00,OVC,,0.00,0.0,WeatherDisplay:10.37,2013-03-12 00:23:00,
2013-03-11 20:28:00,67.9,57.4,29.84,SSE,151,8.1,8.1,69,0.00,OVC,,0.00,0.0,WeatherDisplay:10.37,2013-03-12 00:28:00,
2013-03-11 20:33:00,67.8,57.3,29.84,ESE,111,6.9,6.9,69,0.00,OVC,,0.00,0.0,WeatherDisplay:10.37,2013-03-12 00:33:00,
2013-03-11 20:38:00,67.8,57.3,29.84,SW,222,7.7,7.7,69,0.00,OVC,,0.00,0.0,WeatherDisplay:10.37,2013-03-12 00:38:00,
2013-03-11 20:43:00,67.7,57.2,29.84,East,90,8.1,8.1,69,0.00,OVC,,0.00,0.0,WeatherDisplay:10.37,2013-03-12 00:43:00,
2013-03-11 20:48:00,67.6,57.5,29.84,SE,143,6.9,6.9,70,0.00,OVC,,0.00,0.0,WeatherDisplay:10.37,2013-03-12 00:48:00,
2013-03-11 20:53:00,67.6,57.5,29.84,SE,128,4.6,4.6,70,0.00,OVC,,0.00,0.0,WeatherDisplay:10.37,2013-03-12 00:53:00,
2013-03-11 20:59:00,67.6,57.5,29.84,SSE,160,5.8,5.8,70,0.00,OVC,,0.00,0.0,WeatherDisplay:10.37,2013-03-12 00:59:00,
2013-03-11 21:04:00,67.6,57.9,29.84,South,182,4.6,4.6,71,0.00,OVC,,0.00,0.0,WeatherDisplay:10.37,2013-03-12 01:04:00,
2013-03-11 21:09:00,67.6,58.2,29.84,South,173,9.2,9.2,72,0.00,OVC,,0.00,0.0,WeatherDisplay:10.37,2013-03-12 01:09:00,
2013-03-11 21:14:00,67.6,58.2,29.84,SE,126,6.9,6.9,72,0.00,OVC,,0.00,0.0,WeatherDisplay:10.37,2013-03-12 01:14:00,
2013-03-11 21:19:00,67.6,58.6,29.85,SSW,196,6.9,6.9,73,0.00,OVC,,0.00,0.0,WeatherDisplay:10.37,2013-03-12 01:19:00,
2013-03-11 21:24:00,67.6,58.6,29.85,South,180,9.2,9.2,73,0.00,OVC,,0.00,0.0,WeatherDisplay:10.37,2013-03-12 01:24:00,
2013-03-11 21:29:00,67.6,58.6,29.85,SSW,200,8.1,8.1,73,0.00,OVC,,0.00,0.0,WeatherDisplay:10.37,2013-03-12 01:29:00,
2013-03-11 21:34:00,67.5,58.9,29.86,South,171,6.9,6.9,74,0.00,OVC,,0.00,0.0,WeatherDisplay:10.37,2013-03-12 01:34:00,
2013-03-11 21:39:00,67.4,58.8,29.86,South,191,5.8,5.8,74,0.00,OVC,,0.00,0.0,WeatherDisplay:10.37,2013-03-12 01:39:00,
2013-03-11 21:44:00,67.4,59.2,29.86,SE,133,10.4,10.4,75,0.00,OVC,,0.00,0.0,WeatherDisplay:10.37,2013-03-12 01:44:00,
2013-03-11 21:49:00,67.4,59.2,29.86,SSW,207,5.8,5.8,75,0.00,OVC,,0.00,0.0,WeatherDisplay:10.37,2013-03-12 01:49:00,
2013-03-11 21:54:00,67.4,59.2,29.86,SW,215,6.9,6.9,75,0.00,OVC,,0.00,0.0,WeatherDisplay:10.37,2013-03-12 01:54:00,
2013-03-11 21:59:00,67.5,59.3,29.87,SSW,213,3.5,3.5,75,0.00,OVC,,0.00,0.0,WeatherDisplay:10.37,2013-03-12 01:59:00,
2013-03-11 22:04:00,67.4,59.2,29.87,South,190,4.6,4.6,75,0.00,OVC,,0.00,0.0,WeatherDisplay:10.37,2013-03-12 02:04:00,
2013-03-11 22:09:00,67.4,59.6,29.87,SSW,196,5.8,5.8,76,0.00,OVC,,0.00,0.0,WeatherDisplay:10.37,2013-03-12 02:09:00,
2013-03-11 22:14:00,67.4,59.6,29.89,SSW,208,5.8,5.8,76,0.00,OVC,,0.00,0.0,WeatherDisplay:10.37,2013-03-12 02:14:00,
2013-03-11 22:19:00,67.5,59.7,29.89,SW,218,3.5,3.5,76,0.00,OVC,,0.00,0.0,WeatherDisplay:10.37,2013-03-12 02:19:00,
2013-03-11 22:24:00,67.3,59.5,29.89,South,188,4.6,4.6,76,0.00,OVC,,0.00,0.0,WeatherDisplay:10.37,2013-03-12 02:24:00,
2013-03-11 22:29:00,67.2,59.4,29.89,SSW,192,5.5,5.5,76,0.00,OVC,,0.00,0.0,WeatherDisplay:10.37,2013-03-12 02:29:00,
2013-03-11 22:34:00,67.2,59.4,29.89,SSW,199,5.8,5.8,76,0.00,OVC,,0.00,0.0,WeatherDisplay:10.37,2013-03-12 02:34:00,
2013-03-11 22:39:00,67.2,59.4,29.89,SSW,201,4.6,4.6,76,0.00,OVC,,0.00,0.0,WeatherDisplay:10.37,2013-03-12 02:39:00,
2013-03-11 22:44:00,67.1,59.3,29.89,SSW,197,3.5,3.5,76,0.00,OVC,,0.00,0.0,WeatherDisplay:10.37,2013-03-12 02:44:00,
2013-03-11 22:49:00,67.0,59.5,29.89,SSW,209,4.6,4.6,77,0.00,OVC,,0.00,0.0,WeatherDisplay:10.37,2013-03-12 02:49:00,
2013-03-11 22:54:00,67.0,59.5,29.89,SSW,196,3.5,3.5,77,0.00,OVC,,0.00,0.0,WeatherDisplay:10.37,2013-03-12 02:54:00,
2013-03-11 22:59:00,66.9,59.8,29.89,SSW,193,6.9,6.9,78,0.00,OVC,,0.00,0.0,WeatherDisplay:10.37,2013-03-12 02:59:00,
2013-03-11 23:04:00,66.8,60.1,29.89,SSW,193,1.1,1.1,79,0.00,OVC,,0.00,0.0,WeatherDisplay:10.37,2013-03-12 03:04:00,
2013-03-11 23:09:00,66.6,60.2,29.89,SSW,193,4.6,4.6,80,0.00,OVC,,0.00,0.0,WeatherDisplay:10.37,2013-03-12 03:09:00,
2013-03-11 23:14:00,66.3,59.9,29.88,SSW,193,2.3,2.3,80,0.00,OVC,,0.00,0.0,WeatherDisplay:10.37,2013-03-12 03:14:00,
2013-03-11 23:19:00,66.3,60.3,29.88,SSW,193,3.5,3.5,81,0.00,-RA,,0.00,0.0,WeatherDisplay:10.37,2013-03-12 03:19:00,
2013-03-11 23:24:00,66.2,60.2,29.88,SSW,193,3.5,3.5,81,0.00,-RA,,0.00,0.0,WeatherDisplay:10.37,2013-03-12 03:24:00,
2013-03-11 23:29:00,66.1,60.1,29.87,SSW,193,2.3,2.3,81,0.00,-RA,,0.00,0.0,WeatherDisplay:10.37,2013-03-12 03:29:00,
2013-03-11 23:34:00,65.9,59.9,29.87,SSW,193,3.5,3.5,81,0.00,OVC,,0.00,0.0,WeatherDisplay:10.37,2013-03-12 03:34:00,
2013-03-11 23:39:00,66.0,60.0,29.87,SSW,200,5.5,5.5,81,0.00,OVC,,0.00,0.0,WeatherDisplay:10.37,2013-03-12 03:39:00,
2013-03-11 23:44:00,66.1,60.1,29.86,SSW,194,5.5,5.5,81,0.00,OVC,,0.00,0.0,WeatherDisplay:10.37,2013-03-12 03:44:00,
2013-03-11 23:49:00,66.1,60.1,29.86,SSW,193,3.5,3.5,81,0.00,OVC,,0.00,0.0,WeatherDisplay:10.37,2013-03-12 03:49:00,
2013-03-11 23:54:00,66.0,60.3,29.86,South,171,8.1,8.1,82,0.00,OVC,,0.00,0.0,WeatherDisplay:10.37,2013-03-12 03:54:00,
2013-03-11 23:59:00,66.1,60.1,29.86,SSW,206,8.1,8.1,81,0.00,OVC,,0.00,0.0,WeatherDisplay:10.37,2013-03-12 03:59:00,